DELLINGR (RBLE) (43021 NORAD) Tracking and Keplerian Element Data

This shows tracking and keplerian element data for the satellite.

Feedback or suggestion? Click here.




ElementValue
Catalog43021
NameDELLINGR (RBLE)
Epoch Orbit3793
Epoch Day203.22160968
Epoch Year2018
RAAN200.0604
Inclination51.6385
Eccentricity0.0001876
Argument of Perigee311.6003
Mean Anonmoly48.4828
Mean Motion15.57956146
Decay Rate5.758E-05
L11 43021U 98067NJ 18203.22160968 .00005758 00000-0 82017-4 0 9995
L22 43021 51.6385 200.0604 0001876 311.6003 48.4828 15.57956146 37933

Live tracking and technical data element details for DELLINGR (RBLE) (NORAD 43021). DELLINGR (RBLE) can be tracked NOW for your location showing map with azimuth and elevation plus other details from your city location.

Track the satellite on the map from your city or location and see movement details for azimuth, elevation, latitude, longitude, range, height, and movement on the map or in text.







IsCatalogInMostPopularTable: catalog: 43021, numindb: 82
Update: records affected: 1



GetName: 43021 DELLINGR (RBLE)

Hit Count: updated at: Mon, 23 Jul 2018 07:53:03 GMT